HUF891 ESPE-ESPE

Flight info

Callsign HUF891
Flight time 0h 40m
Altitude 22000
Route NORTH DCT ITVAV DCT ESNJ DCT NORTH
Aircraft A319/M-SDE3FGHIRWY/LB1

Departure

Time 2026-05-06 17:06
Airport Vidsel Air Base (ESPE)

Arrival

Time 2026-05-06 17:47
Airport Vidsel Air Base (ESPE)
Time Latitude Longitude Altitude Speed Heading
2026-05-06 16:51 65.87600 20.13525 593 ft 0 kts 297°
2026-05-06 17:01 65.87602 20.13515 593 ft 1 kts 297°
2026-05-06 17:02 65.87618 20.13490 593 ft 4 kts 34°
2026-05-06 17:02 65.87612 20.13569 593 ft 6 kts 102°
2026-05-06 17:02 65.87633 20.13666 593 ft 8 kts 37°
2026-05-06 17:02 65.87693 20.13751 591 ft 11 kts 27°
2026-05-06 17:03 65.87753 20.13802 591 ft 12 kts 356°
2026-05-06 17:03 65.87804 20.13654 592 ft 12 kts 296°
2026-05-06 17:03 65.87839 20.13477 594 ft 11 kts 295°
2026-05-06 17:03 65.87874 20.13306 595 ft 11 kts 295°
2026-05-06 17:04 65.87907 20.13138 597 ft 11 kts 295°
2026-05-06 17:04 65.87939 20.12984 598 ft 11 kts 297°
2026-05-06 17:04 65.87964 20.12810 599 ft 11 kts 277°
2026-05-06 17:04 65.87989 20.12703 599 ft 4 kts 72°
2026-05-06 17:05 65.87968 20.12795 599 ft 8 kts 110°
2026-05-06 17:05 65.87946 20.12926 599 ft 18 kts 113°
2026-05-06 17:05 65.87824 20.13564 593 ft 83 kts 116°
2026-05-06 17:06 65.87027 20.17525 757 ft 179 kts 114°
2026-05-06 17:06 65.86837 20.20775 953 ft 218 kts 77°
2026-05-06 17:06 65.87650 20.24084 1086 ft 259 kts 40°
2026-05-06 17:06 65.89409 20.25795 1233 ft 240 kts 359°
2026-05-06 17:07 65.91271 20.24916 1351 ft 234 kts 344°
2026-05-06 17:07 65.92851 20.23852 2030 ft 239 kts 345°
2026-05-06 17:07 65.94460 20.22913 2490 ft 249 kts 347°
2026-05-06 17:07 65.96166 20.22081 3018 ft 256 kts 348°
2026-05-06 17:08 65.97903 20.21346 3715 ft 256 kts 349°
2026-05-06 17:08 65.99650 20.20669 4353 ft 259 kts 349°
2026-05-06 17:08 66.01452 20.20005 4726 ft 273 kts 350°
2026-05-06 17:08 66.03404 20.19311 4802 ft 297 kts 350°
2026-05-06 17:09 66.05496 20.18586 4795 ft 296 kts 351°
2026-05-06 17:09 66.07462 20.17929 4731 ft 276 kts 351°
2026-05-06 17:09 66.09283 20.17323 4387 ft 261 kts 351°
2026-05-06 17:09 66.11020 20.16744 4096 ft 245 kts 351°
2026-05-06 17:10 66.12659 20.16200 3816 ft 231 kts 351°
2026-05-06 17:10 66.14217 20.15678 3449 ft 223 kts 351°
2026-05-06 17:10 66.15738 20.15168 2994 ft 219 kts 351°
2026-05-06 17:10 66.17243 20.14660 2802 ft 219 kts 351°
2026-05-06 17:11 66.18741 20.14152 2802 ft 220 kts 351°
2026-05-06 17:11 66.20248 20.13641 2798 ft 220 kts 351°
2026-05-06 17:11 66.21775 20.13124 2794 ft 221 kts 351°
2026-05-06 17:11 66.23286 20.12612 2793 ft 221 kts 351°
2026-05-06 17:12 66.24799 20.12097 2791 ft 221 kts 351°
2026-05-06 17:12 66.26331 20.11574 2793 ft 221 kts 351°
2026-05-06 17:12 66.27838 20.11058 2793 ft 221 kts 351°
2026-05-06 17:12 66.29365 20.10535 2795 ft 221 kts 351°
2026-05-06 17:13 66.30870 20.10020 2800 ft 220 kts 351°
2026-05-06 17:13 66.32385 20.09499 2803 ft 219 kts 351°
2026-05-06 17:13 66.33879 20.08985 2804 ft 219 kts 351°
2026-05-06 17:13 66.35393 20.08465 2805 ft 219 kts 351°
2026-05-06 17:14 66.36887 20.07952 2805 ft 219 kts 351°
2026-05-06 17:14 66.38387 20.07436 2807 ft 219 kts 351°
2026-05-06 17:14 66.39907 20.06913 2806 ft 219 kts 351°
2026-05-06 17:14 66.41421 20.06391 2806 ft 219 kts 351°
2026-05-06 17:15 66.42927 20.05871 2806 ft 220 kts 351°
2026-05-06 17:15 66.44432 20.05351 2806 ft 219 kts 351°
2026-05-06 17:15 66.45934 20.04832 2806 ft 219 kts 351°
2026-05-06 17:15 66.47447 20.04307 2807 ft 219 kts 351°
2026-05-06 17:16 66.48946 20.03786 2810 ft 218 kts 352°
2026-05-06 17:16 66.50443 20.03264 2810 ft 218 kts 352°
2026-05-06 17:16 66.51942 20.02743 2807 ft 218 kts 352°
2026-05-06 17:16 66.53448 20.02220 2803 ft 219 kts 352°
2026-05-06 17:17 66.54939 20.01700 2802 ft 219 kts 352°
2026-05-06 17:17 66.56438 20.01174 2803 ft 219 kts 352°
2026-05-06 17:17 66.57942 20.00649 2800 ft 219 kts 352°
2026-05-06 17:17 66.59454 20.00120 2799 ft 219 kts 352°
2026-05-06 17:18 66.60967 19.99592 2800 ft 219 kts 352°
2026-05-06 17:18 66.62459 19.99070 2799 ft 219 kts 352°
2026-05-06 17:18 66.63980 19.98536 2800 ft 219 kts 352°
2026-05-06 17:18 66.65485 19.98006 2799 ft 219 kts 352°
2026-05-06 17:19 66.66990 19.97476 2801 ft 219 kts 352°
2026-05-06 17:19 66.68484 19.96949 2802 ft 219 kts 352°
2026-05-06 17:19 66.69994 19.96412 2802 ft 219 kts 352°
2026-05-06 17:19 66.71507 19.95978 2793 ft 219 kts
2026-05-06 17:20 66.72964 19.96909 2789 ft 219 kts 28°
2026-05-06 17:20 66.74097 19.99422 2787 ft 220 kts 54°
2026-05-06 17:20 66.74676 20.02938 2788 ft 222 kts 80°
2026-05-06 17:20 66.74583 20.06834 2788 ft 225 kts 107°
2026-05-06 17:21 66.73807 20.10243 2789 ft 228 kts 134°
2026-05-06 17:21 66.72483 20.12438 2792 ft 229 kts 161°
2026-05-06 17:21 66.70928 20.12870 2793 ft 228 kts 189°
2026-05-06 17:21 66.69469 20.11497 2798 ft 227 kts 216°
2026-05-06 17:22 66.68383 20.08630 2810 ft 226 kts 236°
2026-05-06 17:22 66.67447 20.05439 2804 ft 228 kts 227°
2026-05-06 17:22 66.66161 20.03220 2796 ft 229 kts 199°
2026-05-06 17:22 66.64584 20.02850 2800 ft 230 kts 169°
2026-05-06 17:23 66.63037 20.03879 2808 ft 231 kts 162°
2026-05-06 17:23 66.61507 20.05131 2805 ft 232 kts 161°
2026-05-06 17:23 66.59972 20.06415 2803 ft 232 kts 161°
2026-05-06 17:23 66.58439 20.07681 2802 ft 232 kts 162°
2026-05-06 17:24 66.56915 20.08912 2757 ft 232 kts 165°
2026-05-06 17:24 66.55358 20.09299 2479 ft 222 kts 180°
2026-05-06 17:24 66.53845 20.09635 1966 ft 222 kts 172°
2026-05-06 17:24 66.52331 20.10472 1356 ft 226 kts 155°
2026-05-06 17:25 66.50995 20.12344 1029 ft 218 kts 147°
2026-05-06 17:25 66.49792 20.14433 906 ft 203 kts 143°
2026-05-06 17:25 66.48611 20.16465 1346 ft 212 kts 147°
2026-05-06 17:25 66.47498 20.18775 2246 ft 216 kts 121°
2026-05-06 17:26 66.47130 20.22549 2347 ft 244 kts 75°
2026-05-06 17:26 66.48077 20.25585 2312 ft 222 kts 19°
2026-05-06 17:26 66.49529 20.25538 2199 ft 211 kts 341°
2026-05-06 17:26 66.50919 20.24200 2132 ft 215 kts 335°
2026-05-06 17:27 66.52220 20.22316 2099 ft 216 kts 327°
2026-05-06 17:27 66.53432 20.20116 2003 ft 217 kts 321°
2026-05-06 17:27 66.54459 20.17378 1878 ft 215 kts 296°
2026-05-06 17:27 66.54651 20.13870 1795 ft 200 kts 256°
2026-05-06 17:28 66.53845 20.11292 1988 ft 198 kts 201°
2026-05-06 17:28 66.52460 20.11171 1393 ft 213 kts 171°
2026-05-06 17:28 66.51060 20.12183 1040 ft 206 kts 145°
2026-05-06 17:28 66.49915 20.14211 904 ft 192 kts 143°
2026-05-06 17:29 66.48843 20.16165 1164 ft 200 kts 144°
2026-05-06 17:29 66.47723 20.18002 2218 ft 191 kts 146°
2026-05-06 17:29 66.46651 20.19685 3216 ft 185 kts 148°
2026-05-06 17:29 66.45499 20.21443 3637 ft 214 kts 146°
2026-05-06 17:30 66.44437 20.24264 4134 ft 237 kts 115°
2026-05-06 17:30 66.44070 20.28403 4634 ft 250 kts 86°
2026-05-06 17:30 66.44559 20.32649 4798 ft 262 kts 57°
2026-05-06 17:30 66.45815 20.35850 4808 ft 261 kts 28°
2026-05-06 17:31 66.47522 20.37114 4810 ft 258 kts 359°
2026-05-06 17:31 66.49216 20.36149 4812 ft 255 kts 330°
2026-05-06 17:31 66.50522 20.33149 4810 ft 255 kts 301°
2026-05-06 17:31 66.51050 20.29002 4808 ft 256 kts 272°
2026-05-06 17:32 66.50685 20.24636 4807 ft 258 kts 243°
2026-05-06 17:32 66.49521 20.21281 4804 ft 261 kts 214°
2026-05-06 17:32 66.47839 20.19558 4810 ft 264 kts 195°
2026-05-06 17:32 66.46036 20.18621 4809 ft 265 kts 191°
2026-05-06 17:33 66.44228 20.17829 4805 ft 266 kts 190°
2026-05-06 17:33 66.42422 20.17003 4798 ft 265 kts 196°
2026-05-06 17:33 66.40776 20.14982 4796 ft 263 kts 216°
2026-05-06 17:33 66.39327 20.12254 4797 ft 263 kts 219°
2026-05-06 17:34 66.37909 20.09395 4793 ft 263 kts 220°
2026-05-06 17:34 66.36501 20.06528 4789 ft 263 kts 220°
2026-05-06 17:34 66.35095 20.03667 4791 ft 263 kts 220°
2026-05-06 17:34 66.33678 20.00788 4787 ft 263 kts 220°
2026-05-06 17:35 66.32268 19.97924 4784 ft 263 kts 220°
2026-05-06 17:35 66.30840 19.95034 4781 ft 263 kts 220°
2026-05-06 17:35 66.29440 19.92202 4774 ft 255 kts 220°
2026-05-06 17:36 66.26861 19.86997 4775 ft 231 kts 220°
2026-05-06 17:36 66.25597 19.84445 4784 ft 231 kts 220°
2026-05-06 17:36 66.24350 19.81929 4783 ft 231 kts 220°
2026-05-06 17:36 66.23106 19.79422 4781 ft 231 kts 220°
2026-05-06 17:37 66.21869 19.76934 4786 ft 231 kts 220°
2026-05-06 17:37 66.20615 19.74417 4782 ft 231 kts 220°
2026-05-06 17:37 66.19382 19.71942 4785 ft 231 kts 220°
2026-05-06 17:37 66.18124 19.69429 4786 ft 231 kts 220°
2026-05-06 17:38 66.16883 19.66966 4789 ft 231 kts 220°
2026-05-06 17:38 66.15616 19.64461 4791 ft 231 kts 220°
2026-05-06 17:38 66.14363 19.61986 4793 ft 231 kts 220°
2026-05-06 17:38 66.13121 19.59537 4797 ft 231 kts 220°
2026-05-06 17:39 66.11852 19.57044 4797 ft 231 kts 220°
2026-05-06 17:39 66.10591 19.54568 4801 ft 231 kts 220°
2026-05-06 17:39 66.09341 19.52112 4804 ft 231 kts 220°
2026-05-06 17:39 66.08100 19.49670 4808 ft 230 kts 220°
2026-05-06 17:40 66.06812 19.47369 4807 ft 231 kts 211°
2026-05-06 17:40 66.05267 19.46368 4801 ft 232 kts 178°
2026-05-06 17:40 66.03759 19.47576 4792 ft 227 kts 144°
2026-05-06 17:40 66.02744 19.50329 4796 ft 213 kts 124°
2026-05-06 17:41 66.01956 19.53228 4789 ft 199 kts 126°
2026-05-06 17:41 66.01144 19.55935 4790 ft 198 kts 128°
2026-05-06 17:41 66.00310 19.58639 4655 ft 199 kts 128°
2026-05-06 17:41 65.99444 19.61430 3888 ft 219 kts 128°
2026-05-06 17:42 65.98515 19.64406 3238 ft 226 kts 128°
2026-05-06 17:42 65.97568 19.67425 2874 ft 218 kts 128°
2026-05-06 17:42 65.96773 19.70361 2805 ft 198 kts 119°
2026-05-06 17:42 65.96144 19.73297 2807 ft 193 kts 116°
2026-05-06 17:43 65.95552 19.76234 2813 ft 193 kts 116°
2026-05-06 17:43 65.94958 19.79205 2811 ft 192 kts 116°
2026-05-06 17:43 65.94379 19.82124 2826 ft 193 kts 116°
2026-05-06 17:43 65.93758 19.85026 2740 ft 192 kts 118°
2026-05-06 17:44 65.93128 19.87886 2637 ft 191 kts 116°
2026-05-06 17:44 65.92548 19.90845 2464 ft 190 kts 115°
2026-05-06 17:44 65.91975 19.93745 2318 ft 190 kts 117°
2026-05-06 17:44 65.91357 19.96576 2012 ft 191 kts 120°
2026-05-06 17:45 65.90768 19.99413 1780 ft 185 kts 115°
2026-05-06 17:45 65.90214 20.02069 1713 ft 166 kts 118°
2026-05-06 17:45 65.89693 20.04518 1415 ft 161 kts 118°
2026-05-06 17:45 65.89197 20.06844 1187 ft 152 kts 117°
2026-05-06 17:46 65.88756 20.08990 970 ft 141 kts 116°
2026-05-06 17:46 65.88372 20.10931 776 ft 130 kts 116°
2026-05-06 17:46 65.88023 20.12631 612 ft 119 kts 120°
2026-05-06 17:46 65.87727 20.13996 590 ft 53 kts 117°
2026-05-06 17:47 65.87679 20.14319 589 ft 9 kts 102°
2026-05-06 17:47 65.87675 20.14330 589 ft 7 kts 325°
2026-05-06 17:47 65.87701 20.14208 589 ft 8 kts 292°
2026-05-06 17:47 65.87727 20.14056 590 ft 10 kts 291°
2026-05-06 17:48 65.87751 20.13888 591 ft 10 kts 270°
2026-05-06 17:48 65.87702 20.13774 592 ft 10 kts 210°
2026-05-06 17:48 65.87639 20.13688 593 ft 10 kts 207°
2026-05-06 17:48 65.87599 20.13579 593 ft 8 kts 316°
2026-05-06 17:49 65.87630 20.13560 594 ft 0 kts